T 1996 Dec. 23.25830 TT Marsden q 0.0049293 (2000.0) P Q Peri. 89.64511 +0.15595541 -0.98107847 Node 10.87970 -0.95613183 -0.17909825 e 1.0 Incl. 142.56591 +0.24797142 -0.07354493 >From 25 observations 1996 Dec. 22-23.